Location: Mauna Kea VIS
(19.7591°N, 155.4561°W)
Time: 06:04:03
(UTC-10:00)

ARIANE 6 FM1 Upper Stage - Visible Passes

Search period start: 07 December 2025 00:00
Search period end: 17 December 2025 00:00
Orbit: 522 x 612 km, 62.0° (Epoch: 06 December)

Date Brightness Start Highest point End Pass type
(mag) Time Alt. Az. Time Alt. Az. Time Alt. Az.
09 Dec 6.5 06:02:12 10° SE 06:03:43 12° ESE 06:05:14 10° E visible
10 Dec 5.8 06:01:00 10° SSE 06:04:05 20° ESE 06:07:06 10° ENE visible
11 Dec 4.6 06:00:40 10° S 06:04:27 34° ESE 06:08:08 10° NE visible
12 Dec 3.3 06:00:42 10° SSW 06:04:48 60° ESE 06:08:48 10° NE visible
13 Dec 2.5 06:01:02 10° SSW 06:05:11 76° WNW 06:09:14 10° NNE visible
14 Dec 2.9 06:01:39 10° SW 06:05:35 42° WNW 06:09:26 10° N visible
15 Dec 5.6 04:24:42 10° SSE 04:27:13 16° ESE 04:29:42 10° ENE visible
15 Dec 3.6 06:02:34 10° WSW 06:06:00 25° WNW 06:09:22 10° N visible
16 Dec 4.9 04:28:55 22° E 04:28:55 22° E 04:30:57 10° ENE visible
16 Dec 4.2 06:05:15 14° WNW 06:06:27 15° WNW 06:08:55 10° NNW visible
